﻿測定場所 (Monitoring sites),日付 (Measurement date),時間 (Measurement time),線量率 最大値 (max) μGy/h,線量率 最小値 (min) μGy/h,線量率 平均値 (average) μGy/h,
江戸川 (Edogawa),2014-06-15,23:01～24:00,0.0796,0.0712,0.0741,
江戸川 (Edogawa),2014-06-15,22:01～23:00,0.0805,0.0707,0.0738,
江戸川 (Edogawa),2014-06-15,21:01～22:00,0.0804,0.0711,0.0748,
江戸川 (Edogawa),2014-06-15,20:01～21:00,0.0794,0.0709,0.0736,
江戸川 (Edogawa),2014-06-15,19:01～20:00,0.0782,0.0698,0.0737,
江戸川 (Edogawa),2014-06-15,18:01～19:00,0.0787,0.0707,0.0740,
江戸川 (Edogawa),2014-06-15,17:01～18:00,0.0825,0.0698,0.0741,
江戸川 (Edogawa),2014-06-15,16:01～17:00,0.0798,0.0701,0.0739,
江戸川 (Edogawa),2014-06-15,15:01～16:00,0.0840,0.0702,0.0742,
江戸川 (Edogawa),2014-06-15,14:01～15:00,0.0799,0.0690,0.0742,
江戸川 (Edogawa),2014-06-15,13:01～14:00,0.0808,0.0702,0.0739,
江戸川 (Edogawa),2014-06-15,12:01～13:00,0.0795,0.0701,0.0735,
江戸川 (Edogawa),2014-06-15,11:01～12:00,0.0798,0.0690,0.0733,
江戸川 (Edogawa),2014-06-15,10:01～11:00,0.0773,0.0700,0.0734,
江戸川 (Edogawa),2014-06-15,09:01～10:00,0.0763,0.0701,0.0731,
江戸川 (Edogawa),2014-06-15,08:01～09:00,0.0773,0.0708,0.0737,
江戸川 (Edogawa),2014-06-15,07:01～08:00,0.0797,0.0705,0.0734,
江戸川 (Edogawa),2014-06-15,06:01～07:00,0.0814,0.0705,0.0740,
江戸川 (Edogawa),2014-06-15,05:01～06:00,0.0792,0.0703,0.0738,
江戸川 (Edogawa),2014-06-15,04:01～05:00,0.0783,0.0701,0.0734,
江戸川 (Edogawa),2014-06-15,03:01～04:00,0.0785,0.0694,0.0733,
江戸川 (Edogawa),2014-06-15,02:01～03:00,0.0779,0.0693,0.0733,
江戸川 (Edogawa),2014-06-15,01:01～02:00,0.0762,0.0702,0.0732,
江戸川 (Edogawa),2014-06-15,00:01～01:00,0.0800,0.0691,0.0739,
江戸川 (Edogawa),2014-06-14,23:01～24:00,0.0764,0.0697,0.0735,
江戸川 (Edogawa),2014-06-14,22:01～23:00,0.0784,0.0692,0.0734,
江戸川 (Edogawa),2014-06-14,21:01～22:00,0.0777,0.0698,0.0735,
江戸川 (Edogawa),2014-06-14,20:01～21:00,0.0780,0.0688,0.0740,
江戸川 (Edogawa),2014-06-14,19:01～20:00,0.0773,0.0710,0.0735,
江戸川 (Edogawa),2014-06-14,18:01～19:00,0.0794,0.0702,0.0731,
江戸川 (Edogawa),2014-06-14,17:01～18:00,0.0790,0.0699,0.0738,
江戸川 (Edogawa),2014-06-14,16:01～17:00,0.0802,0.0701,0.0737,
江戸川 (Edogawa),2014-06-14,15:01～16:00,0.0792,0.0702,0.0738,
江戸川 (Edogawa),2014-06-14,14:01～15:00,0.0794,0.0710,0.0737,
江戸川 (Edogawa),2014-06-14,13:01～14:00,0.0773,0.0693,0.0732,
江戸川 (Edogawa),2014-06-14,12:01～13:00,0.0789,0.0698,0.0732,
江戸川 (Edogawa),2014-06-14,11:01～12:00,0.0791,0.0704,0.0736,
江戸川 (Edogawa),2014-06-14,10:01～11:00,0.0804,0.0698,0.0729,
江戸川 (Edogawa),2014-06-14,09:01～10:00,0.0791,0.0703,0.0728,
江戸川 (Edogawa),2014-06-14,08:01～09:00,0.0788,0.0696,0.0731,
江戸川 (Edogawa),2014-06-14,07:01～08:00,0.0786,0.0702,0.0732,
江戸川 (Edogawa),2014-06-14,06:01～07:00,0.0771,0.0692,0.0728,
江戸川 (Edogawa),2014-06-14,05:01～06:00,0.0756,0.0690,0.0726,
江戸川 (Edogawa),2014-06-14,04:01～05:00,0.0766,0.0698,0.0729,
江戸川 (Edogawa),2014-06-14,03:01～04:00,0.0773,0.0682,0.0727,
江戸川 (Edogawa),2014-06-14,02:01～03:00,0.0783,0.0690,0.0728,
江戸川 (Edogawa),2014-06-14,01:01～02:00,0.0776,0.0703,0.0733,
江戸川 (Edogawa),2014-06-14,00:01～01:00,0.0815,0.0723,0.0752,
江戸川 (Edogawa),2014-06-13,23:01～24:00,0.0798,0.0700,0.0742,
江戸川 (Edogawa),2014-06-13,22:01～23:00,0.0764,0.0701,0.0732,
江戸川 (Edogawa),2014-06-13,21:01～22:00,0.0792,0.0694,0.0728,
江戸川 (Edogawa),2014-06-13,20:01～21:00,0.0760,0.0694,0.0728,
江戸川 (Edogawa),2014-06-13,19:01～20:00,0.0761,0.0677,0.0727,
江戸川 (Edogawa),2014-06-13,18:01～19:00,0.0803,0.0697,0.0728,
江戸川 (Edogawa),2014-06-13,17:01～18:00,0.0804,0.0697,0.0729,
江戸川 (Edogawa),2014-06-13,16:01～17:00,0.0786,0.0695,0.0729,
江戸川 (Edogawa),2014-06-13,15:01～16:00,0.0764,0.0700,0.0729,
江戸川 (Edogawa),2014-06-13,14:01～15:00,0.0802,0.0696,0.0734,
江戸川 (Edogawa),2014-06-13,13:01～14:00,0.0774,0.0699,0.0735,
江戸川 (Edogawa),2014-06-13,12:01～13:00,0.0793,0.0681,0.0729,
江戸川 (Edogawa),2014-06-13,11:01～12:00,0.0796,0.0695,0.0728,
江戸川 (Edogawa),2014-06-13,10:01～11:00,0.0765,0.0678,0.0725,
江戸川 (Edogawa),2014-06-13,09:01～10:00,0.0763,0.0689,0.0723,
江戸川 (Edogawa),2014-06-13,08:01～09:00,0.0766,0.0677,0.0724,
江戸川 (Edogawa),2014-06-13,07:01～08:00,0.0774,0.0690,0.0722,
江戸川 (Edogawa),2014-06-13,06:01～07:00,0.0801,0.0693,0.0726,
江戸川 (Edogawa),2014-06-13,05:01～06:00,0.0775,0.0678,0.0720,
江戸川 (Edogawa),2014-06-13,04:01～05:00,0.0764,0.0688,0.0718,
江戸川 (Edogawa),2014-06-13,03:01～04:00,0.0773,0.0687,0.0723,
江戸川 (Edogawa),2014-06-13,02:01～03:00,0.0752,0.0680,0.0716,
江戸川 (Edogawa),2014-06-13,01:01～02:00,0.0768,0.0686,0.0719,
江戸川 (Edogawa),2014-06-13,00:01～01:00,0.0752,0.0681,0.0719,
江戸川 (Edogawa),2014-06-12,23:01～24:00,0.0745,0.0669,0.0716,
江戸川 (Edogawa),2014-06-12,22:01～23:00,0.0755,0.0682,0.0717,
江戸川 (Edogawa),2014-06-12,21:01～22:00,0.0782,0.0682,0.0715,
江戸川 (Edogawa),2014-06-12,20:01～21:00,0.0744,0.0677,0.0716,
江戸川 (Edogawa),2014-06-12,19:01～20:00,0.0760,0.0677,0.0714,
江戸川 (Edogawa),2014-06-12,18:01～19:00,0.0764,0.0677,0.0716,
江戸川 (Edogawa),2014-06-12,17:01～18:00,0.0758,0.0657,0.0711,
江戸川 (Edogawa),2014-06-12,16:01～17:00,0.0751,0.0687,0.0718,
江戸川 (Edogawa),2014-06-12,15:01～16:00,0.0777,0.0681,0.0714,
江戸川 (Edogawa),2014-06-12,14:01～15:00,0.0749,0.0680,0.0716,
江戸川 (Edogawa),2014-06-12,13:01～14:00,0.0744,0.0672,0.0716,
江戸川 (Edogawa),2014-06-12,12:01～13:00,0.0758,0.0696,0.0723,
江戸川 (Edogawa),2014-06-12,11:01～12:00,0.0761,0.0675,0.0718,
江戸川 (Edogawa),2014-06-12,10:01～11:00,0.0766,0.0689,0.0716,
江戸川 (Edogawa),2014-06-12,09:01～10:00,0.0759,0.0680,0.0723,
江戸川 (Edogawa),2014-06-12,08:01～09:00,0.0777,0.0693,0.0725,
江戸川 (Edogawa),2014-06-12,07:01～08:00,0.0739,0.0680,0.0709,
江戸川 (Edogawa),2014-06-12,06:01～07:00,0.0740,0.0664,0.0710,
江戸川 (Edogawa),2014-06-12,05:01～06:00,0.0766,0.0686,0.0714,
江戸川 (Edogawa),2014-06-12,04:01～05:00,0.0769,0.0683,0.0718,
江戸川 (Edogawa),2014-06-12,03:01～04:00,0.0776,0.0667,0.0705,
江戸川 (Edogawa),2014-06-12,02:01～03:00,0.0754,0.0653,0.0708,
江戸川 (Edogawa),2014-06-12,01:01～02:00,0.0747,0.0664,0.0711,
江戸川 (Edogawa),2014-06-12,00:01～01:00,0.0744,0.0670,0.0708,
江戸川 (Edogawa),2014-06-11,23:01～24:00,0.0760,0.0695,0.0722,
江戸川 (Edogawa),2014-06-11,22:01～23:00,0.0772,0.0674,0.0721,
江戸川 (Edogawa),2014-06-11,21:01～22:00,0.0776,0.0684,0.0722,
江戸川 (Edogawa),2014-06-11,20:01～21:00,0.0779,0.0688,0.0730,
江戸川 (Edogawa),2014-06-11,19:01～20:00,0.0797,0.0700,0.0734,
江戸川 (Edogawa),2014-06-11,18:01～19:00,0.0752,0.0690,0.0725,
江戸川 (Edogawa),2014-06-11,17:01～18:00,0.0777,0.0679,0.0725,
江戸川 (Edogawa),2014-06-11,16:01～17:00,0.0787,0.0703,0.0740,
江戸川 (Edogawa),2014-06-11,15:01～16:00,0.0792,0.0698,0.0734,
江戸川 (Edogawa),2014-06-11,14:01～15:00,0.0771,0.0676,0.0720,
江戸川 (Edogawa),2014-06-11,13:01～14:00,0.0757,0.0675,0.0724,
江戸川 (Edogawa),2014-06-11,12:01～13:00,0.0807,0.0707,0.0739,
江戸川 (Edogawa),2014-06-11,11:01～12:00,0.0795,0.0686,0.0736,
江戸川 (Edogawa),2014-06-11,10:01～11:00,0.0755,0.0691,0.0727,
江戸川 (Edogawa),2014-06-11,09:01～10:00,0.0769,0.0688,0.0726,
江戸川 (Edogawa),2014-06-11,08:01～09:00,0.0777,0.0698,0.0730,
江戸川 (Edogawa),2014-06-11,07:01～08:00,0.0767,0.0685,0.0723,
江戸川 (Edogawa),2014-06-11,06:01～07:00,0.0753,0.0695,0.0724,
江戸川 (Edogawa),2014-06-11,05:01～06:00,0.0743,0.0683,0.0721,
江戸川 (Edogawa),2014-06-11,04:01～05:00,0.0798,0.0680,0.0723,
江戸川 (Edogawa),2014-06-11,03:01～04:00,0.0778,0.0699,0.0726,
江戸川 (Edogawa),2014-06-11,02:01～03:00,0.0788,0.0693,0.0727,
江戸川 (Edogawa),2014-06-11,01:01～02:00,0.0744,0.0690,0.0722,
江戸川 (Edogawa),2014-06-11,00:01～01:00,0.0757,0.0676,0.0722,
江戸川 (Edogawa),2014-06-10,23:01～24:00,0.0756,0.0685,0.0722,
江戸川 (Edogawa),2014-06-10,22:01～23:00,0.0752,0.0681,0.0721,
江戸川 (Edogawa),2014-06-10,21:01～22:00,0.0775,0.0679,0.0721,
江戸川 (Edogawa),2014-06-10,20:01～21:00,0.0759,0.0689,0.0724,
江戸川 (Edogawa),2014-06-10,19:01～20:00,0.0756,0.0682,0.0721,
江戸川 (Edogawa),2014-06-10,18:01～19:00,0.0758,0.0690,0.0721,
江戸川 (Edogawa),2014-06-10,17:01～18:00,0.0762,0.0703,0.0726,
江戸川 (Edogawa),2014-06-10,16:01～17:00,0.0754,0.0685,0.0726,
江戸川 (Edogawa),2014-06-10,15:01～16:00,0.0769,0.0683,0.0723,
江戸川 (Edogawa),2014-06-10,14:01～15:00,0.0801,0.0689,0.0725,
江戸川 (Edogawa),2014-06-10,13:01～14:00,0.0763,0.0692,0.0723,
江戸川 (Edogawa),2014-06-10,12:01～13:00,0.0765,0.0693,0.0723,
江戸川 (Edogawa),2014-06-10,11:01～12:00,0.0781,0.0682,0.0724,
江戸川 (Edogawa),2014-06-10,10:01～11:00,0.0771,0.0696,0.0726,
江戸川 (Edogawa),2014-06-10,09:01～10:00,0.0743,0.0675,0.0719,
江戸川 (Edogawa),2014-06-10,08:01～09:00,0.0742,0.0693,0.0719,
江戸川 (Edogawa),2014-06-10,07:01～08:00,0.0753,0.0684,0.0719,
江戸川 (Edogawa),2014-06-10,06:01～07:00,0.0748,0.0680,0.0714,
江戸川 (Edogawa),2014-06-10,05:01～06:00,0.0749,0.0692,0.0720,
江戸川 (Edogawa),2014-06-10,04:01～05:00,0.0749,0.0682,0.0718,
江戸川 (Edogawa),2014-06-10,03:01～04:00,0.0768,0.0692,0.0726,
江戸川 (Edogawa),2014-06-10,02:01～03:00,0.0757,0.0701,0.0727,
江戸川 (Edogawa),2014-06-10,01:01～02:00,0.0785,0.0704,0.0736,
江戸川 (Edogawa),2014-06-10,00:01～01:00,0.0788,0.0674,0.0725,
江戸川 (Edogawa),2014-06-09,23:01～24:00,0.0756,0.0691,0.0719,
江戸川 (Edogawa),2014-06-09,22:01～23:00,0.0766,0.0677,0.0721,
江戸川 (Edogawa),2014-06-09,21:01～22:00,0.0766,0.0685,0.0722,
江戸川 (Edogawa),2014-06-09,20:01～21:00,0.0787,0.0693,0.0719,
江戸川 (Edogawa),2014-06-09,19:01～20:00,0.0760,0.0685,0.0721,
江戸川 (Edogawa),2014-06-09,18:01～19:00,0.0765,0.0689,0.0723,
江戸川 (Edogawa),2014-06-09,17:01～18:00,0.0764,0.0697,0.0723,
江戸川 (Edogawa),2014-06-09,16:01～17:00,0.0752,0.0696,0.0722,
江戸川 (Edogawa),2014-06-09,15:01～16:00,0.0748,0.0685,0.0717,
江戸川 (Edogawa),2014-06-09,14:01～15:00,0.0804,0.0681,0.0720,
江戸川 (Edogawa),2014-06-09,13:01～14:00,0.0742,0.0680,0.0714,
江戸川 (Edogawa),2014-06-09,12:01～13:00,0.0746,0.0685,0.0714,
江戸川 (Edogawa),2014-06-09,11:01～12:00,0.0753,0.0662,0.0711,
江戸川 (Edogawa),2014-06-09,10:01～11:00,0.0748,0.0670,0.0709,
江戸川 (Edogawa),2014-06-09,09:01～10:00,0.0742,0.0676,0.0717,
江戸川 (Edogawa),2014-06-09,08:01～09:00,0.0759,0.0686,0.0713,
江戸川 (Edogawa),2014-06-09,07:01～08:00,0.0772,0.0683,0.0718,
江戸川 (Edogawa),2014-06-09,06:01～07:00,0.0745,0.0675,0.0717,
江戸川 (Edogawa),2014-06-09,05:01～06:00,0.0754,0.0680,0.0717,
江戸川 (Edogawa),2014-06-09,04:01～05:00,0.0745,0.0686,0.0716,
江戸川 (Edogawa),2014-06-09,03:01～04:00,0.0758,0.0690,0.0719,
江戸川 (Edogawa),2014-06-09,02:01～03:00,0.0751,0.0687,0.0718,
江戸川 (Edogawa),2014-06-09,01:01～02:00,0.0766,0.0683,0.0717,
江戸川 (Edogawa),2014-06-09,00:01～01:00,0.0759,0.0684,0.0716,
